Location: Peebles
(55.6412°N, 3.1714°W)
Time: 08:41:17
(UTC+01:00)

Cosmos 1943 Rocket - Pass Details

Date: 26 September 2021
Orbit: 810 x 845 km, 71.0° (Epoch: 21 October)

Event Time Altitude Azimuth Distance (km) Brightness Sun altitude
Rises 21:37:04 0° 246° (WSW) 3,365 5.8 -21.9°
Reaches altitude 10° 21:39:41 10° 255° (WSW) 2,441 5.1 -22.2°
Maximum altitude 21:44:49 36° 322° (NW) 1,314 3.7 -22.8°
Drops below altitude 10° 21:50:01 10° 28° (NNE) 2,470 4.7 -23.4°
Sets 21:52:42 0° 37° (NE) 3,412 5.4 -23.7°
